Time,TemperatureF,DewpointF,PressureIn,WindDirection,WindDirectionDegrees,WindSpeedMPH,WindSpeedGustMPH,Humidity,HourlyPrecipIn,Conditions,Clouds,dailyrainin,SoftwareType,DateUTC
2013-10-07 00:01:00,49.8,49.0,30.15,SSE,148,3.6,5.4,97,0.00,,---,0.00,VWS V14.01,2013-10-07 04:01:00,
2013-10-07 00:06:00,49.8,49.0,30.15,SE,144,2.7,4.0,97,0.00,,---,0.00,VWS V14.01,2013-10-07 04:06:00,
2013-10-07 00:11:00,49.6,48.8,30.15,SE,124,3.1,4.9,97,0.00,,---,0.00,VWS V14.01,2013-10-07 04:11:00,
2013-10-07 00:16:00,49.6,49.1,30.15,SSW,211,2.7,3.6,98,0.00,,---,0.00,VWS V14.01,2013-10-07 04:16:00,
2013-10-07 00:21:00,49.6,49.1,30.15,ESE,117,4.0,4.0,98,0.00,,---,0.00,VWS V14.01,2013-10-07 04:21:00,
2013-10-07 00:26:00,49.6,49.1,30.15,ESE,112,2.7,4.0,98,0.00,,---,0.00,VWS V14.01,2013-10-07 04:26:00,
2013-10-07 00:31:00,49.6,49.1,30.15,South,175,2.2,4.0,98,0.00,,---,0.00,VWS V14.01,2013-10-07 04:31:00,
2013-10-07 00:36:00,49.6,49.1,30.15,SE,124,4.5,4.5,98,0.00,,---,0.00,VWS V14.01,2013-10-07 04:36:00,
2013-10-07 00:41:00,49.6,49.1,30.15,SSW,212,3.1,5.8,98,0.00,,---,0.00,VWS V14.01,2013-10-07 04:41:00,
2013-10-07 00:46:00,49.5,48.9,30.15,ESE,122,3.6,3.6,98,0.00,,---,0.00,VWS V14.01,2013-10-07 04:46:00,
2013-10-07 00:51:00,49.5,48.9,30.15,ESE,115,3.6,4.0,98,0.00,,---,0.00,VWS V14.01,2013-10-07 04:51:00,
2013-10-07 00:56:00,49.5,48.9,30.15,ESE,118,4.5,4.5,98,0.00,,---,0.00,VWS V14.01,2013-10-07 04:56:00,
2013-10-07 01:01:00,49.5,48.9,30.15,SW,224,2.7,3.1,98,0.00,,---,0.00,VWS V14.01,2013-10-07 05:01:00,
2013-10-07 01:06:00,49.3,48.7,30.15,ESE,123,0.0,0.0,98,0.00,,---,0.00,VWS V14.01,2013-10-07 05:06:00,
2013-10-07 01:11:00,49.3,48.7,30.15,ESE,118,0.0,0.0,98,0.00,,---,0.00,VWS V14.01,2013-10-07 05:11:00,
2013-10-07 01:16:00,49.3,48.7,30.15,SE,125,0.0,0.0,98,0.00,,---,0.00,VWS V14.01,2013-10-07 05:16:00,
2013-10-07 01:21:00,49.3,48.7,30.15,ESE,117,0.0,0.0,98,0.00,,---,0.00,VWS V14.01,2013-10-07 05:21:00,
2013-10-07 01:26:00,49.3,48.7,30.15,ESE,115,0.0,2.2,98,0.00,,---,0.00,VWS V14.01,2013-10-07 05:26:00,
2013-10-07 01:31:00,49.3,48.7,30.15,East,97,0.0,3.6,98,0.00,,---,0.00,VWS V14.01,2013-10-07 05:31:00,
2013-10-07 01:36:00,49.3,48.7,30.12,East,97,0.0,0.0,98,0.00,,---,0.00,VWS V14.01,2013-10-07 05:36:00,
2013-10-07 01:41:00,49.3,48.7,30.12,SE,141,0.0,2.2,98,0.00,,---,0.00,VWS V14.01,2013-10-07 05:41:00,
2013-10-07 01:46:00,49.3,48.7,30.12,SE,128,0.0,0.0,98,0.00,,---,0.00,VWS V14.01,2013-10-07 05:46:00,
2013-10-07 01:51:00,49.3,48.7,30.12,ESE,122,3.6,3.6,98,0.00,,---,0.00,VWS V14.01,2013-10-07 05:51:00,
2013-10-07 01:56:00,49.3,48.7,30.12,SE,126,0.0,2.2,98,0.00,,---,0.00,VWS V14.01,2013-10-07 05:56:00,
2013-10-07 02:01:00,49.3,48.7,30.12,SSE,152,3.6,4.9,98,0.00,,---,0.00,VWS V14.01,2013-10-07 06:01:00,
2013-10-07 02:06:00,49.3,48.7,30.12,SSE,162,4.0,5.4,98,0.00,,---,0.00,VWS V14.01,2013-10-07 06:06:00,
2013-10-07 02:11:00,49.3,48.7,30.12,East,99,0.0,0.0,98,0.00,,---,0.00,VWS V14.01,2013-10-07 06:11:00,
2013-10-07 02:16:00,49.5,48.9,30.12,SSE,150,0.0,0.0,98,0.00,,---,0.00,VWS V14.01,2013-10-07 06:16:00,
2013-10-07 02:21:00,49.5,48.9,30.12,SSE,150,0.0,0.0,98,0.00,,---,0.00,VWS V14.01,2013-10-07 06:21:00,
2013-10-07 02:26:00,49.6,49.1,30.12,SSE,150,0.0,0.0,98,0.00,,---,0.00,VWS V14.01,2013-10-07 06:26:00,
2013-10-07 02:31:00,49.6,49.1,30.12,SE,127,2.7,4.0,98,0.00,,---,0.00,VWS V14.01,2013-10-07 06:31:00,
2013-10-07 02:36:00,49.6,49.4,30.12,SSW,200,0.0,3.1,99,0.00,,---,0.00,VWS V14.01,2013-10-07 06:36:00,
2013-10-07 02:41:00,49.6,49.4,30.12,SSE,163,2.2,2.7,99,0.00,,---,0.00,VWS V14.01,2013-10-07 06:41:00,
2013-10-07 02:46:00,49.6,49.4,30.12,East,100,0.0,0.0,99,0.00,,---,0.00,VWS V14.01,2013-10-07 06:46:00,
2013-10-07 02:51:00,49.6,49.4,30.12,SE,133,0.0,4.9,99,0.00,,---,0.00,VWS V14.01,2013-10-07 06:51:00,
2013-10-07 02:56:00,49.8,49.5,30.12,ESE,106,0.0,0.0,99,0.04,,---,0.04,VWS V14.01,2013-10-07 06:56:00,
2013-10-07 03:00:00,49.8,49.5,30.12,East,100,0.0,0.0,99,0.04,,---,0.04,VWS V14.01,2013-10-07 07:00:00,
2013-10-07 03:05:00,49.8,49.5,30.09,SE,134,0.0,2.7,99,0.04,,---,0.04,VWS V14.01,2013-10-07 07:05:00,
2013-10-07 03:10:00,50.0,49.7,30.09,ESE,118,0.0,0.0,99,0.04,,---,0.04,VWS V14.01,2013-10-07 07:10:00,
2013-10-07 03:15:00,50.0,49.7,30.09,ESE,120,0.0,0.0,99,0.04,,---,0.04,VWS V14.01,2013-10-07 07:15:00,
2013-10-07 03:20:00,50.0,49.7,30.09,ESE,120,0.0,2.7,99,0.04,,---,0.04,VWS V14.01,2013-10-07 07:20:00,
2013-10-07 03:25:00,50.0,49.7,30.09,ESE,120,0.0,0.0,99,0.04,,---,0.04,VWS V14.01,2013-10-07 07:25:00,
2013-10-07 03:30:00,50.2,49.9,30.09,ESE,117,0.0,0.0,99,0.04,,---,0.04,VWS V14.01,2013-10-07 07:30:00,
2013-10-07 03:35:00,50.2,49.9,30.09,ESE,113,0.0,0.0,99,0.04,,---,0.04,VWS V14.01,2013-10-07 07:35:00,
2013-10-07 03:40:00,50.2,49.9,30.09,ESE,116,0.0,3.1,99,0.04,,---,0.00,VWS V14.01,2013-10-07 07:40:00,
2013-10-07 03:45:00,50.2,49.9,30.09,ESE,116,0.0,0.0,99,0.04,,---,0.04,VWS V14.01,2013-10-07 07:45:00,
2013-10-07 03:50:00,50.4,50.4,30.09,East,94,2.7,2.7,100,0.04,,---,0.04,VWS V14.01,2013-10-07 07:50:00,
2013-10-07 03:55:00,50.4,50.4,30.09,East,87,2.7,2.7,100,0.00,,---,0.04,VWS V14.01,2013-10-07 07:55:00,
2013-10-07 04:00:00,50.5,50.5,30.09,East,90,0.0,0.0,100,0.00,,---,0.04,VWS V14.01,2013-10-07 08:00:00,
2013-10-07 04:05:00,50.5,50.5,30.09,SE,133,0.0,2.2,100,0.00,,---,0.04,VWS V14.01,2013-10-07 08:05:00,
2013-10-07 04:10:00,50.5,50.5,30.09,SE,136,0.0,0.0,100,0.00,,---,0.04,VWS V14.01,2013-10-07 08:10:00,
2013-10-07 04:15:00,50.7,50.7,30.09,SE,127,0.0,0.0,100,0.00,,---,0.04,VWS V14.01,2013-10-07 08:15:00,
2013-10-07 04:20:00,50.7,50.7,30.09,ESE,117,0.0,0.0,100,0.00,,---,0.00,VWS V14.01,2013-10-07 08:20:00,
2013-10-07 04:25:00,50.9,50.9,30.09,ESE,117,0.0,0.0,100,0.00,,---,0.04,VWS V14.01,2013-10-07 08:25:00,
2013-10-07 04:30:00,50.9,50.9,30.09,ESE,112,0.0,0.0,100,0.00,,---,0.04,VWS V14.01,2013-10-07 08:30:00,
2013-10-07 04:35:00,51.1,51.1,30.06,ESE,112,0.0,0.0,100,0.00,,---,0.04,VWS V14.01,2013-10-07 08:35:00,
2013-10-07 04:40:00,51.1,51.1,30.06,ESE,112,0.0,0.0,100,0.00,,---,0.04,VWS V14.01,2013-10-07 08:40:00,
2013-10-07 04:45:00,51.3,51.3,30.06,ESE,112,0.0,2.2,100,0.00,,---,0.04,VWS V14.01,2013-10-07 08:45:00,
2013-10-07 04:50:00,51.3,51.3,30.06,ESE,112,0.0,0.0,100,0.00,,---,0.04,VWS V14.01,2013-10-07 08:50:00,
2013-10-07 04:55:00,51.3,51.3,30.06,ESE,112,0.0,0.0,100,0.04,,---,0.08,VWS V14.01,2013-10-07 08:55:00,
2013-10-07 05:00:00,51.4,51.4,30.06,ESE,112,0.0,0.0,100,0.04,,---,0.00,VWS V14.01,2013-10-07 09:00:00,
2013-10-07 05:05:00,51.4,51.4,30.06,SE,128,0.0,0.0,100,0.04,,---,0.08,VWS V14.01,2013-10-07 09:05:00,
2013-10-07 05:10:00,51.6,51.6,30.06,SE,127,0.0,0.0,100,0.04,,---,0.08,VWS V14.01,2013-10-07 09:10:00,
2013-10-07 05:15:00,51.8,51.8,30.06,ESE,120,0.0,0.0,100,0.04,,---,0.08,VWS V14.01,2013-10-07 09:15:00,
2013-10-07 05:20:00,51.8,51.8,30.06,East,101,0.0,0.0,100,0.04,,---,0.08,VWS V14.01,2013-10-07 09:20:00,
2013-10-07 05:25:00,52.0,52.0,30.06,ENE,63,0.0,0.0,100,0.04,,---,0.08,VWS V14.01,2013-10-07 09:25:00,
2013-10-07 05:30:00,52.0,52.0,30.06,ENE,75,0.0,0.0,100,0.04,,---,0.08,VWS V14.01,2013-10-07 09:30:00,
2013-10-07 05:35:00,52.2,52.2,30.06,ESE,107,0.0,0.0,100,0.04,,---,0.08,VWS V14.01,2013-10-07 09:35:00,
2013-10-07 05:40:00,52.3,52.3,30.06,ESE,103,0.0,0.0,100,0.04,,---,0.08,VWS V14.01,2013-10-07 09:40:00,
2013-10-07 05:45:00,52.5,52.5,30.06,ESE,103,0.0,2.2,100,0.04,,---,0.00,VWS V14.01,2013-10-07 09:45:00,
2013-10-07 05:50:00,52.5,52.5,30.06,ESE,123,0.0,0.0,100,0.04,,---,0.08,VWS V14.01,2013-10-07 09:50:00,
2013-10-07 05:55:00,52.7,52.7,30.06,SE,125,0.0,0.0,100,0.00,,---,0.08,VWS V14.01,2013-10-07 09:55:00,
2013-10-07 06:00:00,52.7,52.7,30.06,SSE,148,3.1,3.1,100,0.00,,---,0.08,VWS V14.01,2013-10-07 10:00:00,
2013-10-07 06:05:00,52.9,52.9,30.06,ESE,118,0.0,0.0,100,0.00,,---,0.08,VWS V14.01,2013-10-07 10:05:00,
2013-10-07 06:10:00,53.1,53.1,30.06,ESE,118,0.0,0.0,100,0.00,,---,0.08,VWS V14.01,2013-10-07 10:10:00,
2013-10-07 06:15:00,53.1,53.1,30.06,ESE,118,0.0,0.0,100,0.00,,---,0.08,VWS V14.01,2013-10-07 10:15:00,
2013-10-07 06:20:00,53.2,53.2,30.06,SSW,212,3.1,3.1,100,0.00,,---,0.08,VWS V14.01,2013-10-07 10:20:00,
2013-10-07 06:25:00,53.2,53.2,30.06,SE,140,2.2,2.7,100,0.00,,---,0.08,VWS V14.01,2013-10-07 10:25:00,
2013-10-07 06:30:00,53.4,53.4,30.06,ESE,114,2.2,2.2,100,0.00,,---,0.08,VWS V14.01,2013-10-07 10:30:00,
2013-10-07 06:35:00,53.4,53.4,30.06,ESE,106,0.0,0.0,100,0.00,,---,0.08,VWS V14.01,2013-10-07 10:35:00,
2013-10-07 06:40:00,53.4,53.4,30.06,SSE,157,4.0,4.0,100,0.00,,---,0.08,VWS V14.01,2013-10-07 10:40:00,
2013-10-07 06:45:00,53.6,53.6,30.06,SE,125,4.0,4.0,100,0.00,,---,0.08,VWS V14.01,2013-10-07 10:45:00,
2013-10-07 06:50:00,53.6,53.6,30.03,ESE,116,3.6,3.6,100,0.04,,---,0.12,VWS V14.01,2013-10-07 10:50:00,
2013-10-07 06:55:00,53.6,53.6,30.03,SE,131,0.0,0.0,100,0.04,,---,0.12,VWS V14.01,2013-10-07 10:55:00,
2013-10-07 07:00:00,53.8,53.8,30.03,ESE,109,2.2,2.2,100,0.04,,---,0.12,VWS V14.01,2013-10-07 11:00:00,
2013-10-07 07:05:00,53.8,53.8,30.03,SE,124,0.0,0.0,100,0.04,,---,0.00,VWS V14.01,2013-10-07 11:05:00,
2013-10-07 07:10:00,54.0,54.0,30.03,SE,133,0.0,0.0,100,0.04,,---,0.12,VWS V14.01,2013-10-07 11:10:00,
2013-10-07 07:15:00,54.0,54.0,30.03,ESE,106,4.0,4.0,100,0.04,,---,0.12,VWS V14.01,2013-10-07 11:15:00,
2013-10-07 07:20:00,54.1,54.1,30.03,ESE,116,0.0,4.0,100,0.04,,---,0.12,VWS V14.01,2013-10-07 11:20:00,
2013-10-07 07:25:00,54.1,54.1,30.03,SSE,149,0.0,4.0,100,0.04,,---,0.12,VWS V14.01,2013-10-07 11:25:00,
2013-10-07 07:30:00,54.3,54.3,30.03,SE,133,4.0,4.9,100,0.04,,---,0.12,VWS V14.01,2013-10-07 11:30:00,
2013-10-07 07:35:00,54.3,54.3,30.03,South,190,0.0,5.4,100,0.04,,---,0.12,VWS V14.01,2013-10-07 11:35:00,
2013-10-07 07:40:00,54.5,54.5,30.03,SE,128,0.0,0.0,100,0.04,,---,0.00,VWS V14.01,2013-10-07 11:40:00,
2013-10-07 07:45:00,54.5,54.5,30.03,ESE,109,0.0,4.5,100,0.04,,---,0.12,VWS V14.01,2013-10-07 11:45:00,
2013-10-07 07:50:00,54.5,54.5,30.03,ESE,105,2.7,5.8,100,0.04,,---,0.12,VWS V14.01,2013-10-07 11:50:00,
2013-10-07 07:55:00,54.7,54.7,30.03,SE,134,2.7,4.0,100,0.00,,---,0.12,VWS V14.01,2013-10-07 11:55:00,
2013-10-07 08:00:00,54.7,54.7,30.03,East,81,0.0,5.8,100,0.00,,---,0.12,VWS V14.01,2013-10-07 12:00:00,
2013-10-07 08:05:00,54.9,54.9,30.03,East,80,0.0,4.0,100,0.00,,---,0.12,VWS V14.01,2013-10-07 12:05:00,
2013-10-07 08:10:00,54.9,54.9,30.03,ESE,114,4.0,4.0,100,0.00,,---,0.12,VWS V14.01,2013-10-07 12:10:00,
2013-10-07 08:15:00,54.9,54.9,30.03,SW,224,0.0,3.6,100,0.00,,---,0.12,VWS V14.01,2013-10-07 12:15:00,
2013-10-07 08:19:00,55.0,55.0,30.00,SE,142,4.5,4.5,100,0.00,,---,0.12,VWS V14.01,2013-10-07 12:19:00,
2013-10-07 08:24:00,55.2,55.2,30.00,SE,137,0.0,5.4,100,0.00,,---,0.12,VWS V14.01,2013-10-07 12:24:00,
2013-10-07 08:29:00,55.2,55.2,30.00,ESE,117,3.6,4.0,100,0.00,,---,0.12,VWS V14.01,2013-10-07 12:29:00,
2013-10-07 08:34:00,55.4,55.4,30.03,SE,131,3.1,3.6,100,0.00,,---,0.12,VWS V14.01,2013-10-07 12:34:00,
2013-10-07 08:39:00,55.6,55.6,30.03,SE,137,0.0,4.9,100,0.00,,---,0.12,VWS V14.01,2013-10-07 12:39:00,
2013-10-07 08:44:00,55.6,55.6,30.03,NE,56,0.0,4.0,100,0.00,,---,0.12,VWS V14.01,2013-10-07 12:44:00,
2013-10-07 08:49:00,55.8,55.8,30.03,SE,134,0.0,3.1,100,0.00,,---,0.12,VWS V14.01,2013-10-07 12:49:00,
2013-10-07 08:54:00,55.9,55.9,30.03,ESE,114,2.7,2.7,100,0.00,,---,0.12,VWS V14.01,2013-10-07 12:54:00,
2013-10-07 08:59:00,56.1,56.1,30.03,East,99,3.1,3.6,100,0.00,,---,0.12,VWS V14.01,2013-10-07 12:59:00,
2013-10-07 09:04:00,56.1,56.1,30.03,East,99,0.0,2.7,100,0.00,,---,0.12,VWS V14.01,2013-10-07 13:04:00,
2013-10-07 09:09:00,56.3,56.3,30.03,SE,129,0.0,3.1,100,0.00,,---,0.12,VWS V14.01,2013-10-07 13:09:00,
2013-10-07 09:14:00,56.3,56.3,30.03,East,98,3.1,3.6,100,0.00,,---,0.12,VWS V14.01,2013-10-07 13:14:00,
2013-10-07 09:19:00,56.5,56.5,30.00,East,93,2.7,3.1,100,0.00,,---,0.12,VWS V14.01,2013-10-07 13:19:00,
2013-10-07 09:24:00,56.7,56.7,30.00,ESE,122,3.6,5.4,100,0.00,,---,0.12,VWS V14.01,2013-10-07 13:24:00,
2013-10-07 09:29:00,56.8,56.8,30.00,ESE,123,2.7,3.1,100,0.00,,---,0.12,VWS V14.01,2013-10-07 13:29:00,
2013-10-07 09:34:00,57.0,57.0,30.00,SE,142,2.7,3.1,100,0.00,,---,0.00,VWS V14.01,2013-10-07 13:34:00,
2013-10-07 09:39:00,57.0,57.0,30.00,SE,132,4.0,4.0,100,0.00,,---,0.12,VWS V14.01,2013-10-07 13:39:00,
2013-10-07 09:44:00,57.2,57.2,30.00,East,91,2.7,4.9,100,0.00,,---,0.12,VWS V14.01,2013-10-07 13:44:00,
2013-10-07 09:49:00,57.2,57.2,30.00,SE,143,0.0,4.0,100,0.00,,---,0.12,VWS V14.01,2013-10-07 13:49:00,
2013-10-07 09:54:00,57.2,57.2,30.00,East,86,0.0,4.9,100,0.00,,---,0.12,VWS V14.01,2013-10-07 13:54:00,
2013-10-07 09:59:00,57.4,57.4,30.00,East,86,0.0,2.2,100,0.00,,---,0.12,VWS V14.01,2013-10-07 13:59:00,
2013-10-07 10:04:00,57.6,57.6,30.00,East,87,0.0,2.2,100,0.04,,---,0.16,VWS V14.01,2013-10-07 14:04:00,
2013-10-07 10:09:00,57.6,57.6,30.00,SE,132,0.0,3.6,100,0.04,,---,0.16,VWS V14.01,2013-10-07 14:09:00,
2013-10-07 10:14:00,57.7,57.7,30.00,SE,132,0.0,2.2,100,0.04,,---,0.16,VWS V14.01,2013-10-07 14:14:00,
2013-10-07 10:19:00,58.1,58.1,30.00,SE,136,0.0,3.6,100,0.04,,---,0.00,VWS V14.01,2013-10-07 14:19:00,
2013-10-07 10:24:00,58.1,58.1,30.00,SE,128,0.0,5.4,100,0.04,,---,0.16,VWS V14.01,2013-10-07 14:24:00,
2013-10-07 10:29:00,58.3,58.3,30.00,ESE,104,0.0,4.9,100,0.04,,---,0.16,VWS V14.01,2013-10-07 14:29:00,
2013-10-07 10:34:00,58.5,58.5,30.00,ESE,116,0.0,2.2,100,0.04,,---,0.00,VWS V14.01,2013-10-07 14:34:00,
2013-10-07 10:39:00,58.6,58.6,30.00,ESE,116,0.0,0.0,100,0.04,,---,0.16,VWS V14.01,2013-10-07 14:39:00,
2013-10-07 10:44:00,58.8,58.8,30.00,ESE,116,0.0,0.0,100,0.04,,---,0.16,VWS V14.01,2013-10-07 14:44:00,
2013-10-07 10:49:00,59.2,59.2,29.97,ESE,116,0.0,2.7,100,0.04,,---,0.16,VWS V14.01,2013-10-07 14:49:00,
2013-10-07 10:54:00,59.4,59.4,29.97,ESE,111,0.0,4.0,100,0.04,,---,0.16,VWS V14.01,2013-10-07 14:54:00,
2013-10-07 10:59:00,59.4,59.4,29.97,SE,137,0.0,3.1,100,0.04,,---,0.16,VWS V14.01,2013-10-07 14:59:00,
2013-10-07 11:04:00,59.5,59.5,29.94,ESE,120,0.0,3.6,100,0.04,,---,0.16,VWS V14.01,2013-10-07 15:04:00,
2013-10-07 11:09:00,59.7,59.7,29.94,ESE,122,3.1,3.6,100,0.00,,---,0.16,VWS V14.01,2013-10-07 15:09:00,
2013-10-07 11:14:00,59.9,59.9,29.94,ESE,123,2.2,4.0,100,0.00,,---,0.16,VWS V14.01,2013-10-07 15:14:00,
2013-10-07 11:19:00,60.1,60.1,29.97,SE,124,0.0,0.0,100,0.00,,---,0.16,VWS V14.01,2013-10-07 15:19:00,
2013-10-07 11:24:00,60.3,60.3,29.97,SE,124,0.0,3.6,100,0.00,,---,0.16,VWS V14.01,2013-10-07 15:24:00,
2013-10-07 11:29:00,60.4,60.4,29.97,SE,125,2.7,3.1,100,0.00,,---,0.16,VWS V14.01,2013-10-07 15:29:00,
2013-10-07 11:34:00,60.6,60.6,29.94,SE,127,0.0,3.6,100,0.00,,---,0.16,VWS V14.01,2013-10-07 15:34:00,
2013-10-07 11:39:00,61.0,61.0,29.94,SE,127,0.0,0.0,100,0.00,,---,0.16,VWS V14.01,2013-10-07 15:39:00,
2013-10-07 11:44:00,61.2,61.2,29.94,SE,127,0.0,0.0,100,0.00,,---,0.16,VWS V14.01,2013-10-07 15:44:00,
2013-10-07 11:49:00,61.3,61.3,29.94,SE,125,0.0,0.0,100,0.00,,---,0.16,VWS V14.01,2013-10-07 15:49:00,
2013-10-07 11:54:00,61.5,61.5,29.94,SE,125,0.0,0.0,100,0.00,,---,0.16,VWS V14.01,2013-10-07 15:54:00,
2013-10-07 11:59:00,61.7,61.7,29.94,ESE,120,2.2,2.2,100,0.00,,---,0.16,VWS V14.01,2013-10-07 15:59:00,
2013-10-07 12:04:00,61.7,61.7,29.94,ESE,122,0.0,4.0,100,0.00,,---,0.16,VWS V14.01,2013-10-07 16:04:00,
2013-10-07 12:09:00,61.9,61.9,29.94,ESE,122,0.0,3.6,100,0.00,,---,0.16,VWS V14.01,2013-10-07 16:09:00,
2013-10-07 12:14:00,62.1,62.1,29.94,ESE,109,0.0,3.6,100,0.00,,---,0.16,VWS V14.01,2013-10-07 16:14:00,
2013-10-07 12:19:00,62.2,62.2,29.94,East,99,3.1,4.0,100,0.00,,---,0.16,VWS V14.01,2013-10-07 16:19:00,
2013-10-07 12:24:00,62.2,62.2,29.94,SE,135,0.0,4.0,100,0.00,,---,0.16,VWS V14.01,2013-10-07 16:24:00,
2013-10-07 12:29:00,62.4,62.4,29.94,South,185,0.0,4.0,100,0.00,,---,0.16,VWS V14.01,2013-10-07 16:29:00,
2013-10-07 12:34:00,62.6,62.6,29.91,SE,137,0.0,5.8,100,0.00,,---,0.00,VWS V14.01,2013-10-07 16:34:00,
2013-10-07 12:39:00,62.8,62.8,29.91,ENE,78,2.7,3.1,100,0.00,,---,0.16,VWS V14.01,2013-10-07 16:39:00,
2013-10-07 12:44:00,63.0,63.0,29.91,SE,135,3.6,5.8,100,0.00,,---,0.16,VWS V14.01,2013-10-07 16:44:00,
2013-10-07 12:49:00,63.1,63.1,29.91,SW,234,3.6,5.8,100,0.04,,---,0.20,VWS V14.01,2013-10-07 16:49:00,
2013-10-07 12:54:00,63.1,63.1,29.91,SE,140,3.1,8.3,100,0.04,,---,0.00,VWS V14.01,2013-10-07 16:54:00,
2013-10-07 12:59:00,63.3,63.3,29.91,WSW,248,4.5,5.8,100,0.04,,---,0.20,VWS V14.01,2013-10-07 16:59:00,
2013-10-07 13:04:00,63.3,63.3,29.88,East,96,2.7,9.6,100,0.04,,---,0.20,VWS V14.01,2013-10-07 17:04:00,
2013-10-07 13:09:00,63.5,63.5,29.88,NNE,22,0.0,8.7,100,0.04,,---,0.20,VWS V14.01,2013-10-07 17:09:00,
2013-10-07 13:14:00,63.5,63.5,29.88,SSE,153,5.4,8.3,100,0.08,,---,0.24,VWS V14.01,2013-10-07 17:14:00,
2013-10-07 13:19:00,63.7,63.7,29.88,WNW,285,3.1,10.5,100,0.08,,---,0.24,VWS V14.01,2013-10-07 17:19:00,
2013-10-07 13:24:00,63.9,63.9,29.88,SSW,196,3.1,10.1,100,0.08,,---,0.24,VWS V14.01,2013-10-07 17:24:00,
2013-10-07 13:29:00,64.0,64.0,29.88,NW,311,3.1,7.6,100,0.08,,---,0.24,VWS V14.01,2013-10-07 17:29:00,
2013-10-07 13:34:00,64.2,64.2,29.88,West,276,4.0,8.1,100,0.12,,---,0.28,VWS V14.01,2013-10-07 17:34:00,
2013-10-07 13:39:00,64.2,64.2,29.88,SSE,168,5.4,12.3,100,0.16,,---,0.31,VWS V14.01,2013-10-07 17:39:00,
2013-10-07 13:44:00,64.4,64.4,29.88,SSE,154,4.0,7.2,100,0.16,,---,0.00,VWS V14.01,2013-10-07 17:44:00,
2013-10-07 13:49:00,64.4,64.4,29.88,SSW,195,3.1,5.8,100,0.12,,---,0.31,VWS V14.01,2013-10-07 17:49:00,
2013-10-07 13:54:00,64.6,64.6,29.88,West,262,3.1,5.8,100,0.12,,---,0.31,VWS V14.01,2013-10-07 17:54:00,
2013-10-07 13:59:00,64.6,64.6,29.88,South,170,6.3,6.3,100,0.12,,---,0.31,VWS V14.01,2013-10-07 17:59:00,
2013-10-07 14:03:00,64.6,64.6,29.88,NNW,327,2.7,8.1,100,0.12,,---,0.31,VWS V14.01,2013-10-07 18:03:00,
2013-10-07 14:08:00,64.6,64.6,29.88,ESE,120,2.7,6.3,100,0.12,,---,0.31,VWS V14.01,2013-10-07 18:08:00,
2013-10-07 14:13:00,64.6,64.6,29.88,SE,124,2.7,6.3,100,0.12,,---,0.31,VWS V14.01,2013-10-07 18:13:00,
2013-10-07 14:18:00,64.6,64.6,29.85,East,82,0.0,7.6,100,0.08,,---,0.31,VWS V14.01,2013-10-07 18:18:00,
2013-10-07 14:23:00,64.6,64.6,29.85,SSE,148,5.8,8.3,100,0.08,,---,0.31,VWS V14.01,2013-10-07 18:23:00,
2013-10-07 14:28:00,64.6,64.6,29.85,SE,126,4.0,11.0,100,0.12,,---,0.35,VWS V14.01,2013-10-07 18:28:00,
2013-10-07 14:33:00,64.6,64.6,29.85,South,170,0.0,7.6,100,0.12,,---,0.35,VWS V14.01,2013-10-07 18:33:00,
2013-10-07 18:59:00,66.7,66.7,29.77,ESE,117,8.3,8.3,100,0.00,,---,0.35,VWS V14.01,2013-10-07 22:59:00,
2013-10-07 19:00:00,66.7,66.7,29.77,SSW,194,12.8,12.8,100,0.08,,---,0.35,VWS V14.01,2013-10-07 23:00:00,
2013-10-07 19:04:00,66.7,66.7,29.77,ENE,78,3.1,12.8,100,0.00,,---,0.35,VWS V14.01,2013-10-07 23:04:00,
2013-10-07 19:05:00,66.7,66.7,29.77,East,98,4.9,12.8,100,0.00,,---,0.35,VWS V14.01,2013-10-07 23:05:00,
2013-10-07 19:09:00,66.7,66.7,29.77,SSE,165,4.0,11.9,100,0.00,,---,0.35,VWS V14.01,2013-10-07 23:09:00,
2013-10-07 19:10:00,66.7,66.7,29.77,SSW,213,15.0,15.0,100,0.00,,---,0.35,VWS V14.01,2013-10-07 23:10:00,
2013-10-07 19:14:00,66.9,66.9,29.77,ESE,106,3.6,15.0,100,0.00,,---,0.35,VWS V14.01,2013-10-07 23:14:00,
2013-10-07 19:15:00,66.9,66.9,29.77,ESE,106,3.6,15.0,100,0.00,,---,0.35,VWS V14.01,2013-10-07 23:15:00,
2013-10-07 19:19:00,67.1,67.1,29.77,SW,218,11.0,12.8,100,0.00,,---,0.35,VWS V14.01,2013-10-07 23:19:00,
2013-10-07 19:20:00,67.1,67.1,29.77,South,188,6.3,12.8,100,0.00,,---,0.35,VWS V14.01,2013-10-07 23:20:00,
2013-10-07 19:24:00,67.1,67.1,29.77,WSW,237,11.4,11.4,100,0.00,,---,0.35,VWS V14.01,2013-10-07 23:24:00,
2013-10-07 19:25:00,67.1,67.1,29.77,South,179,16.8,18.8,100,0.00,,---,0.35,VWS V14.01,2013-10-07 23:25:00,
2013-10-07 19:29:00,67.3,67.3,29.77,WSW,257,7.2,16.8,100,0.00,,---,0.35,VWS V14.01,2013-10-07 23:29:00,
2013-10-07 19:30:00,67.3,67.3,29.77,East,101,8.1,16.8,100,0.00,,---,0.35,VWS V14.01,2013-10-07 23:30:00,
2013-10-07 19:34:00,67.3,66.7,29.74,WSW,244,10.1,15.0,98,0.00,,---,0.35,VWS V14.01,2013-10-07 23:34:00,
2013-10-07 19:35:00,67.3,66.7,29.74,WSW,243,2.7,15.0,98,0.00,,---,0.35,VWS V14.01,2013-10-07 23:35:00,
2013-10-07 19:41:00,67.5,66.6,29.74,NE,51,3.6,3.6,97,0.00,,---,0.35,VWS V14.01,2013-10-07 23:41:00,
2013-10-07 19:45:00,67.5,66.3,29.74,East,86,6.3,11.4,96,0.00,,---,0.35,VWS V14.01,2013-10-07 23:45:00,
2013-10-07 19:46:00,67.5,66.3,29.74,ESE,104,5.8,8.3,96,0.00,,---,0.35,VWS V14.01,2013-10-07 23:46:00,
2013-10-07 19:50:00,67.6,66.2,29.77,WSW,258,4.0,12.8,95,0.00,,---,0.35,VWS V14.01,2013-10-07 23:50:00,
2013-10-07 19:55:00,67.8,66.3,29.77,SSW,195,4.9,13.2,95,0.00,,---,0.35,VWS V14.01,2013-10-07 23:55:00,
2013-10-07 19:59:00,67.8,66.0,29.77,SW,220,2.7,2.7,94,0.00,,---,0.35,VWS V14.01,2013-10-07 23:59:00,
2013-10-07 20:00:00,67.8,66.0,29.77,SE,135,3.1,11.0,94,0.00,,---,0.35,VWS V14.01,2013-10-08 00:00:00,
2013-10-07 20:04:00,67.8,65.7,29.74,East,84,6.3,13.6,93,0.00,,---,0.35,VWS V14.01,2013-10-08 00:04:00,
2013-10-07 20:05:00,67.8,65.7,29.74,SSE,166,5.8,13.6,93,0.00,,---,0.35,VWS V14.01,2013-10-08 00:05:00,
2013-10-07 20:09:00,67.8,65.7,29.74,South,190,6.3,10.1,93,0.00,,---,0.35,VWS V14.01,2013-10-08 00:09:00,
2013-10-07 20:10:00,67.8,65.7,29.74,NE,49,5.4,10.1,93,0.00,,---,0.35,VWS V14.01,2013-10-08 00:10:00,
2013-10-07 20:14:00,67.8,66.0,29.74,South,191,4.0,8.3,94,0.00,,---,0.35,VWS V14.01,2013-10-08 00:14:00,
2013-10-07 20:15:00,67.8,66.0,29.74,ESE,106,5.8,8.3,94,0.00,,---,0.35,VWS V14.01,2013-10-08 00:15:00,
2013-10-07 20:19:00,67.8,66.0,29.74,SSE,166,15.0,15.0,94,0.00,,---,0.35,VWS V14.01,2013-10-08 00:19:00,
2013-10-07 20:20:00,68.0,65.9,29.74,SW,218,10.5,15.0,93,0.00,,---,0.35,VWS V14.01,2013-10-08 00:20:00,
2013-10-07 20:24:00,68.0,65.9,29.74,South,179,10.5,15.9,93,0.00,,---,0.35,VWS V14.01,2013-10-08 00:24:00,
2013-10-07 20:25:00,68.0,65.9,29.74,SSW,207,5.4,15.9,93,0.00,,---,0.35,VWS V14.01,2013-10-08 00:25:00,
2013-10-07 20:29:00,68.0,65.9,29.74,SSW,192,4.0,13.2,93,0.00,,---,0.35,VWS V14.01,2013-10-08 00:29:00,
2013-10-07 20:30:00,68.0,65.9,29.74,WNW,300,3.6,13.2,93,0.00,,---,0.35,VWS V14.01,2013-10-08 00:30:00,
2013-10-07 20:34:00,68.2,66.1,29.74,NNE,32,4.9,15.4,93,0.00,,---,0.35,VWS V14.01,2013-10-08 00:34:00,
2013-10-07 20:35:00,68.2,66.1,29.74,SSW,207,3.6,15.4,93,0.00,,---,0.35,VWS V14.01,2013-10-08 00:35:00,
2013-10-07 20:39:00,68.2,65.8,29.74,NE,53,7.2,13.2,92,0.00,,---,0.35,VWS V14.01,2013-10-08 00:39:00,
2013-10-07 20:40:00,68.2,65.8,29.74,SW,214,8.3,13.2,92,0.00,,---,0.35,VWS V14.01,2013-10-08 00:40:00,
2013-10-07 20:44:00,68.4,65.9,29.74,SW,225,4.9,19.7,92,0.00,,---,0.35,VWS V14.01,2013-10-08 00:44:00,
2013-10-07 20:45:00,68.4,65.9,29.74,SW,229,15.0,19.7,92,0.00,,---,0.35,VWS V14.01,2013-10-08 00:45:00,
2013-10-07 20:49:00,68.5,66.1,29.77,SSW,211,13.2,19.7,92,0.00,,---,0.35,VWS V14.01,2013-10-08 00:49:00,
2013-10-07 20:50:00,68.5,66.1,29.77,SW,217,12.3,19.7,92,0.00,,---,0.35,VWS V14.01,2013-10-08 00:50:00,
2013-10-07 20:56:00,68.7,65.7,29.77,SW,215,13.6,13.6,90,0.00,,---,0.35,VWS V14.01,2013-10-08 00:56:00,
2013-10-07 21:00:00,68.7,65.0,29.77,SSW,200,8.7,15.4,88,0.00,,---,0.35,VWS V14.01,2013-10-08 01:00:00,
2013-10-07 21:01:00,68.7,65.0,29.77,WSW,253,7.6,14.5,88,0.00,,---,0.35,VWS V14.01,2013-10-08 01:01:00,
2013-10-07 21:05:00,68.5,64.5,29.74,SSW,212,5.8,14.5,87,0.00,,---,0.35,VWS V14.01,2013-10-08 01:05:00,
2013-10-07 21:06:00,68.5,64.5,29.74,SSW,213,2.7,14.1,87,0.00,,---,0.35,VWS V14.01,2013-10-08 01:06:00,
2013-10-07 21:10:00,68.4,64.3,29.74,SSW,210,13.2,14.1,87,0.00,,---,0.35,VWS V14.01,2013-10-08 01:10:00,
2013-10-07 21:11:00,68.4,64.7,29.74,South,169,11.0,13.2,88,0.00,,---,0.35,VWS V14.01,2013-10-08 01:11:00,
2013-10-07 21:15:00,68.4,64.7,29.74,East,96,4.9,21.5,88,0.00,,---,0.35,VWS V14.01,2013-10-08 01:15:00,
2013-10-07 21:16:00,68.2,64.5,29.74,SW,215,11.0,12.8,88,0.00,,---,0.35,VWS V14.01,2013-10-08 01:16:00,
2013-10-07 21:20:00,68.2,64.8,29.77,SW,216,6.3,15.4,89,0.00,,---,0.35,VWS V14.01,2013-10-08 01:20:00,
2013-10-07 21:21:00,68.0,64.6,29.77,West,259,4.0,6.3,89,0.00,,---,0.35,VWS V14.01,2013-10-08 01:21:00,
2013-10-07 21:25:00,67.8,64.5,29.77,SW,226,3.1,8.7,89,0.08,,---,0.43,VWS V14.01,2013-10-08 01:25:00,
2013-10-07 21:26:00,67.8,64.5,29.77,SSE,167,3.1,5.8,89,0.12,,---,0.47,VWS V14.01,2013-10-08 01:26:00,
2013-10-07 21:30:00,67.5,64.1,29.77,SSW,205,3.6,12.8,89,0.24,,---,0.59,VWS V14.01,2013-10-08 01:30:00,
2013-10-07 21:31:00,67.3,63.9,29.77,SSW,211,10.5,10.5,89,0.28,,---,0.63,VWS V14.01,2013-10-08 01:31:00,
2013-10-07 21:36:00,66.9,64.2,29.74,SW,230,4.0,4.0,91,0.28,,---,0.63,VWS V14.01,2013-10-08 01:36:00,
2013-10-07 21:40:00,66.9,64.5,29.74,SW,235,3.1,7.6,92,0.35,,---,0.71,VWS V14.01,2013-10-08 01:40:00,
2013-10-07 21:41:00,66.7,64.3,29.74,WNW,287,4.9,5.4,92,0.35,,---,0.71,VWS V14.01,2013-10-08 01:41:00,
2013-10-07 21:45:00,66.7,64.7,29.74,SSW,212,6.3,8.3,93,0.35,,---,0.71,VWS V14.01,2013-10-08 01:45:00,
2013-10-07 21:46:00,66.6,64.5,29.74,SSW,208,3.1,6.3,93,0.35,,---,0.35,VWS V14.01,2013-10-08 01:46:00,
2013-10-07 21:50:00,66.6,64.8,29.74,SW,234,5.4,8.3,94,0.35,,---,0.71,VWS V14.01,2013-10-08 01:50:00,
2013-10-07 21:51:00,66.6,64.8,29.74,SW,232,10.5,10.5,94,0.35,,---,0.71,VWS V14.01,2013-10-08 01:51:00,
2013-10-07 21:55:00,66.4,64.9,29.74,WSW,248,9.2,15.0,95,0.35,,---,0.71,VWS V14.01,2013-10-08 01:55:00,
2013-10-07 21:56:00,66.4,64.9,29.74,SW,228,15.0,16.8,95,0.35,,---,0.71,VWS V14.01,2013-10-08 01:56:00,
2013-10-07 22:00:00,66.4,65.2,29.74,SSE,165,7.6,16.8,96,0.35,,---,0.71,VWS V14.01,2013-10-08 02:00:00,
2013-10-07 22:01:00,66.4,65.2,29.74,SSW,198,13.2,17.4,96,0.35,,---,0.71,VWS V14.01,2013-10-08 02:01:00,
2013-10-07 22:05:00,66.4,65.2,29.74,SW,227,3.1,17.4,96,0.35,,---,0.71,VWS V14.01,2013-10-08 02:05:00,
2013-10-07 22:06:00,66.4,65.5,29.74,South,191,12.8,12.8,97,0.35,,---,0.71,VWS V14.01,2013-10-08 02:06:00,
2013-10-07 22:10:00,66.2,65.3,29.74,WSW,244,11.0,12.8,97,0.35,,---,0.71,VWS V14.01,2013-10-08 02:10:00,
2013-10-07 22:11:00,66.2,65.3,29.74,West,263,12.3,12.3,97,0.35,,---,0.71,VWS V14.01,2013-10-08 02:11:00,
2013-10-07 22:15:00,66.0,65.2,29.74,SW,231,8.1,13.2,97,0.35,,---,0.71,VWS V14.01,2013-10-08 02:15:00,
2013-10-07 22:16:00,66.0,65.2,29.74,SSW,194,8.3,8.3,97,0.35,,---,0.71,VWS V14.01,2013-10-08 02:16:00,
2013-10-07 22:20:00,65.8,65.3,29.77,SE,137,2.7,9.6,98,0.35,,---,0.71,VWS V14.01,2013-10-08 02:20:00,
2013-10-07 22:21:00,65.8,65.3,29.77,SW,224,4.0,5.4,98,0.35,,---,0.71,VWS V14.01,2013-10-08 02:21:00,
2013-10-07 22:25:00,65.7,65.1,29.77,SSW,195,5.4,10.1,98,0.39,,---,0.75,VWS V14.01,2013-10-08 02:25:00,
2013-10-07 22:26:00,65.7,65.1,29.77,WSW,244,9.2,9.2,98,0.31,,---,0.75,VWS V14.01,2013-10-08 02:26:00,
2013-10-07 22:30:00,65.7,65.1,29.77,West,270,6.3,12.8,98,0.31,,---,0.75,VWS V14.01,2013-10-08 02:30:00,
2013-10-07 22:31:00,65.7,65.1,29.77,South,171,5.4,6.3,98,0.16,,---,0.75,VWS V14.01,2013-10-08 02:31:00,
2013-10-07 22:35:00,65.5,64.9,29.77,West,265,4.0,5.8,98,0.12,,---,0.75,VWS V14.01,2013-10-08 02:35:00,
2013-10-07 22:40:00,65.3,64.7,29.77,WSW,255,6.3,6.3,98,0.04,,---,0.75,VWS V14.01,2013-10-08 02:40:00,
2013-10-07 22:45:00,65.1,64.8,29.77,WSW,247,5.4,5.4,99,0.04,,---,0.75,VWS V14.01,2013-10-08 02:45:00,
2013-10-07 22:50:00,64.8,64.2,29.77,SW,233,5.4,8.3,98,0.04,,---,0.75,VWS V14.01,2013-10-08 02:50:00,
2013-10-07 22:56:00,64.4,63.8,29.77,SW,224,2.7,2.7,98,0.00,,---,0.75,VWS V14.01,2013-10-08 02:56:00,
2013-10-07 23:03:00,63.9,63.3,29.77,WSW,252,3.6,3.6,98,0.00,,---,0.75,VWS V14.01,2013-10-08 03:03:00,
2013-10-07 23:08:00,63.7,63.1,29.77,SW,221,3.1,6.7,98,0.04,,---,0.75,VWS V14.01,2013-10-08 03:08:00,
2013-10-07 23:13:00,63.7,63.1,29.77,SW,218,5.8,5.8,98,0.04,,---,0.75,VWS V14.01,2013-10-08 03:13:00,
2013-10-07 23:18:00,63.5,62.9,29.77,SW,233,4.0,4.9,98,0.04,,---,0.75,VWS V14.01,2013-10-08 03:18:00,
2013-10-07 23:23:00,63.5,62.9,29.77,South,172,2.7,3.1,98,0.04,,---,0.75,VWS V14.01,2013-10-08 03:23:00,
2013-10-07 23:28:00,63.3,62.8,29.77,SSW,212,3.6,4.0,98,0.00,,---,0.75,VWS V14.01,2013-10-08 03:28:00,
2013-10-07 23:33:00,63.3,63.0,29.77,SSW,203,0.0,3.6,99,0.00,,---,0.75,VWS V14.01,2013-10-08 03:33:00,
2013-10-07 23:38:00,63.3,63.0,29.77,SSW,207,0.0,3.6,99,0.00,,---,0.75,VWS V14.01,2013-10-08 03:38:00,
2013-10-07 23:43:00,63.1,62.9,29.77,SW,227,0.0,3.1,99,0.00,,---,0.75,VWS V14.01,2013-10-08 03:43:00,
2013-10-07 23:48:00,63.1,62.9,29.77,SW,233,2.7,5.8,99,0.00,,---,0.75,VWS V14.01,2013-10-08 03:48:00,
2013-10-07 23:53:00,63.1,62.9,29.77,SSW,206,0.0,3.6,99,0.00,,---,0.75,VWS V14.01,2013-10-08 03:53:00,
2013-10-07 23:58:00,63.1,62.9,29.77,SW,214,4.0,4.0,99,0.00,,---,0.75,VWS V14.01,2013-10-08 03:58:00,